Saint Michaels, AZ

3:09 AM MDT on September 30, 2016 (GMT -0600)
Window Rock

Weather History for KRQE - June, 2014

Change the Weather History Date:

Friday, June 13, 2014

  Actual Average Record
Temperature  
Mean Temperature 69 °F -  
Max Temperature 87 °F 79 °F 92 °F (1939)
Min Temperature 54 °F 46 °F 33 °F (2001)
Cooling Degree Days 4    
Growing Degree Days 19 (Base 50)    
Moisture  
Dew Point 32 °F    
Average Humidity 26    
Maximum Humidity 45    
Minimum Humidity 15    
Precipitation  
Precipitation 0.00 in - - ()
Sea Level Pressure  
Sea Level Pressure 29.72 in    
Wind  
Wind Speed 8 mph (SW)    
Max Wind Speed 24 mph    
Max Gust Speed 41 mph    
Visibility 10 miles    
Events      
Averages and records for this station are not official NWS values.
T = Trace of Precipitation, MM = Missing Value Source: NWS Daily Summary

Daily Weather History Graph

Daily Weather History Graph

Search for Another Location

Airport or City:

Trip Planner

Search our weather history database for the weather conditions in past years. The results will help you decide how hot, cold, wet, or windy it might be!

Date:

Astronomy

Jun. 13, 2014 Rise Set
Actual Time 5:59 AM MDT 8:32 PM MDT
Civil Twilight 5:29 AM MDT 9:02 PM MDT
Nautical Twilight 4:52 AM MDT 9:40 PM MDT
Astronomical Twilight 4:11 AM MDT 10:21 PM MDT
Moon 9:09 PM MDT (6/13) 6:39 AM MDT (6/13)
Length of Visible Light 15h 33m
Length of Day
14h 33m
Full, 100% of the Moon is Illuminated
Jun 13
Full
Jun 19
Last Quarter
Jun 27
New
Jul 5
First Quarter
Jul 12
Full

Hourly Weather History & Observations

Time (MDT) Temp. Dew Point Humidity Pressure Visibility Wind Dir Wind Speed Gust Speed Precip Events Conditions
12:53 AM 64.9 °F 28.9 °F 26% 29.77 in 10.0 mi Variable 3.5 mph - N/A   Clear
1:53 AM 63.0 °F 28.9 °F 28% 29.78 in 10.0 mi East 3.5 mph - N/A   Clear
2:53 AM 59.0 °F 30.0 °F 33% 29.78 in 10.0 mi Calm Calm - N/A   Clear
3:53 AM 60.1 °F 30.9 °F 33% 29.78 in 10.0 mi Variable 3.5 mph - N/A   Clear
4:53 AM 55.0 °F 30.0 °F 38% 29.79 in 10.0 mi Calm Calm - N/A   Clear
5:53 AM 54.0 °F 33.1 °F 45% 29.80 in 10.0 mi Calm Calm - N/A   Clear
6:53 AM 59.0 °F 34.0 °F 39% 29.80 in 10.0 mi Calm Calm - N/A   Clear
7:53 AM 68.0 °F 36.0 °F 31% 29.78 in 10.0 mi South 8.1 mph - N/A   Clear
9:53 AM 77.0 °F 37.0 °F 24% 29.79 in 10.0 mi SW 20.7 mph 25.3 mph N/A   Clear
11:53 AM 82.0 °F 37.0 °F 20% 29.73 in 10.0 mi SW 18.4 mph 29.9 mph N/A   Clear
12:53 PM 84.9 °F 32.0 °F 15% 29.71 in 10.0 mi WSW 24.2 mph 39.1 mph N/A   Partly Cloudy
1:53 PM 82.0 °F 37.0 °F 20% 29.70 in 10.0 mi WSW 18.4 mph 27.6 mph N/A   Mostly Cloudy
5:53 PM 82.0 °F 32.0 °F 16% 29.66 in 10.0 mi WSW 24.2 mph 41.4 mph N/A   Partly Cloudy
6:53 PM 81.0 °F 30.9 °F 16% 29.64 in 10.0 mi SW 20.7 mph 36.8 mph N/A   Partly Cloudy
7:53 PM 78.1 °F 28.9 °F 17% 29.63 in 10.0 mi WSW 21.9 mph 36.8 mph N/A   Scattered Clouds
8:53 PM 75.0 °F 28.9 °F 18% 29.62 in 10.0 mi WSW 19.6 mph 24.2 mph N/A   Clear
9:53 PM 72.0 °F 28.9 °F 20% 29.64 in 10.0 mi SW 12.7 mph 20.7 mph N/A   Clear
10:53 PM 68.0 °F 30.9 °F 25% 29.65 in 10.0 mi SW 8.1 mph - N/A   Clear
11:53 PM 66.0 °F 34.0 °F 30% 29.66 in 10.0 mi SW 10.4 mph - N/A   Clear